Location: Bernadets
(43.3537°N, 0.3167°E)
Time: 20:57:38
(UTC+00:00)

SWARM A - Pass Details

Date: 24 October 2021
Orbit: 424 x 429 km, 87.4° (Epoch: 06 December)

Event Time Altitude Azimuth Distance (km) Brightness Sun altitude
Rises 18:23:27 0° 174° (S) 2,385 7.9 -15.6°
Reaches altitude 10° 18:25:28 10° 172° (S) 1,525 6.9 -15.9°
Maximum altitude 18:28:45 66° 89° (E) 474 4.1 -16.5°
Drops below altitude 10° 18:32:03 10° 7° (N) 1,541 6.9 -17.1°
Sets 18:34:07 0° 5° (N) 2,415 8.0 -17.5°
